{"data":{"norad_id":59417,"intl_designator":"2024-064V","name":"STARLINK-31401","alt_names":[],"object_type":"PAYLOAD","status":"ACTIVE","operator":null,"country":"US","launch_date":"2024-04-05","launch_site_code":"AFETR","launch_vehicle":null,"mission":null,"orbit_class":"UNKNOWN","rcs_meters":null,"size_class":null,"mass_kg":null,"dimensions":null,"purposes":["comms"],"wikipedia_slug":null,"has_3d_model":false,"image_url":null,"decayed_at":null,"tle_current":{"epoch":"2026-05-24T20:26:39.388992Z","epoch_age_seconds":94753,"freshness":"FRESH","line1":"1 59417U 24064V   26144.85184478 -.00000285  00000+0 -85861-6 0  9994","line2":"2 59417  43.0035 339.1352 0000731 280.0512  80.0257 15.27575167120706","mean_motion":15.27575167,"eccentricity":7.31e-5,"inclination_deg":43.0035,"raan_deg":339.1352,"arg_perigee_deg":280.0512,"mean_anomaly_deg":80.0257,"bstar":-8.5861e-7,"rev_number":12070,"period_min":94.267046958351,"perigee_km":482.56201405696,"apogee_km":483.56512157998,"semimajor_km":6861.2005678185,"source":"CELESTRAK","updated_at":"2026-05-25T13:38:18.942900Z"}}}